TAP1928 LPPT-LPPR

Flight info

Callsign TAP1928
Flight time 0h 34m
Altitude 20000
Route IXIDA DCT ABLEG
Aircraft A320/M-SDE3FGHIRWY/LB1

Departure

Time 2026-05-07 10:48
Airport Lisbon Humberto Delgado Airport (LPPT)

Arrival

Time 2026-05-07 11:22
Airport Francisco de Sá Carneiro Airport (LPPR)
Time Latitude Longitude Altitude Speed Heading
2026-05-07 10:26 38.76937 -9.13065 336 ft 0 kts 78°
2026-05-07 10:26 38.76938 -9.13066 337 ft 0 kts 78°
2026-05-07 10:41 38.76935 -9.13082 332 ft 4 kts 78°
2026-05-07 10:42 38.76931 -9.13109 337 ft 3 kts 78°
2026-05-07 10:42 38.76929 -9.13141 334 ft 4 kts 116°
2026-05-07 10:42 38.76945 -9.13157 336 ft 4 kts 167°
2026-05-07 10:42 38.76958 -9.13161 339 ft 0 kts 167°
2026-05-07 10:44 38.76937 -9.13154 334 ft 13 kts 167°
2026-05-07 10:44 38.76832 -9.13126 336 ft 16 kts 168°
2026-05-07 10:45 38.76774 -9.13203 339 ft 13 kts 258°
2026-05-07 10:45 38.76758 -9.13305 348 ft 10 kts 258°
2026-05-07 10:45 38.76716 -9.13408 351 ft 17 kts 218°
2026-05-07 10:45 38.76649 -9.13515 347 ft 16 kts 258°
2026-05-07 10:46 38.76625 -9.13663 350 ft 18 kts 258°
2026-05-07 10:46 38.76599 -9.13827 353 ft 20 kts 258°
2026-05-07 10:46 38.76567 -9.13995 353 ft 18 kts 247°
2026-05-07 10:46 38.76497 -9.14125 349 ft 16 kts 256°
2026-05-07 10:47 38.76529 -9.14279 335 ft 21 kts 293°
2026-05-07 10:47 38.76571 -9.14384 330 ft 13 kts 315°
2026-05-07 10:47 38.76658 -9.14381 336 ft 16 kts 22°
2026-05-07 10:47 38.76977 -9.14211 347 ft 92 kts 22°
2026-05-07 10:48 38.77834 -9.13755 401 ft 167 kts 22°
2026-05-07 10:48 38.78918 -9.13180 1311 ft 170 kts 22°
2026-05-07 10:48 38.80028 -9.12596 2164 ft 179 kts 21°
2026-05-07 10:48 38.81249 -9.11945 2573 ft 203 kts 24°
2026-05-07 10:49 38.82550 -9.11017 3123 ft 224 kts 30°
2026-05-07 10:49 38.83957 -9.09926 3695 ft 248 kts 31°
2026-05-07 10:49 38.85471 -9.08741 4514 ft 260 kts 31°
2026-05-07 10:49 38.87035 -9.07516 5439 ft 267 kts 31°
2026-05-07 10:50 38.88640 -9.06262 6395 ft 273 kts 31°
2026-05-07 10:50 38.90193 -9.04825 7339 ft 278 kts 41°
2026-05-07 10:50 38.91639 -9.03132 8267 ft 284 kts 41°
2026-05-07 10:50 38.93112 -9.01407 9159 ft 290 kts 41°
2026-05-07 10:51 38.94676 -8.99740 10023 ft 296 kts 31°
2026-05-07 10:51 38.96621 -8.98776 10649 ft 310 kts
2026-05-07 10:51 38.98818 -8.98604 10986 ft 332 kts
2026-05-07 10:51 39.01207 -8.98525 11406 ft 352 kts 360°
2026-05-07 10:52 39.03690 -8.98455 12130 ft 359 kts 359°
2026-05-07 10:52 39.06204 -8.98382 12913 ft 364 kts 359°
2026-05-07 10:52 39.08752 -8.98297 13698 ft 368 kts 360°
2026-05-07 10:52 39.11325 -8.98202 14458 ft 372 kts 360°
2026-05-07 10:53 39.13923 -8.98102 15205 ft 376 kts 360°
2026-05-07 10:53 39.16548 -8.98000 15932 ft 379 kts 360°
2026-05-07 10:53 39.19201 -8.97896 16643 ft 383 kts 360°
2026-05-07 10:53 39.21880 -8.97786 17319 ft 387 kts 360°
2026-05-07 10:54 39.24583 -8.97674 17986 ft 390 kts 360°
2026-05-07 10:54 39.27307 -8.97559 18637 ft 394 kts 360°
2026-05-07 10:54 39.30059 -8.97444 19262 ft 397 kts 360°
2026-05-07 10:54 39.32833 -8.97329 19861 ft 400 kts 360°
2026-05-07 10:55 39.35630 -8.97213 20159 ft 403 kts 360°
2026-05-07 10:55 39.38455 -8.97100 20232 ft 413 kts 360°
2026-05-07 10:55 39.41353 -8.96986 20239 ft 420 kts 360°
2026-05-07 10:55 39.44279 -8.96869 20237 ft 421 kts 360°
2026-05-07 10:56 39.47170 -8.96753 20237 ft 422 kts 360°
2026-05-07 10:56 39.50104 -8.96636 20243 ft 422 kts 360°
2026-05-07 10:56 39.53044 -8.96519 20237 ft 422 kts 360°
2026-05-07 10:56 39.55979 -8.96402 20245 ft 422 kts 360°
2026-05-07 10:57 39.58913 -8.96283 20247 ft 422 kts 360°
2026-05-07 10:57 39.61848 -8.96164 20246 ft 422 kts 359°
2026-05-07 10:57 39.64784 -8.96048 20249 ft 422 kts 360°
2026-05-07 10:57 39.67720 -8.95932 20248 ft 422 kts 360°
2026-05-07 10:58 39.70662 -8.95814 20249 ft 422 kts 360°
2026-05-07 10:58 39.73604 -8.95695 20249 ft 422 kts 360°
2026-05-07 10:58 39.76539 -8.95577 20252 ft 422 kts 360°
2026-05-07 10:58 39.79478 -8.95460 20250 ft 422 kts 360°
2026-05-07 10:59 39.82417 -8.95343 20249 ft 422 kts 360°
2026-05-07 10:59 39.85353 -8.95223 20249 ft 423 kts 360°
2026-05-07 10:59 39.88294 -8.95101 20254 ft 423 kts 360°
2026-05-07 10:59 39.91235 -8.94978 20253 ft 423 kts 360°
2026-05-07 11:00 39.94172 -8.94856 20252 ft 422 kts 360°
2026-05-07 11:00 39.97110 -8.94734 20253 ft 422 kts 360°
2026-05-07 11:00 40.00048 -8.94613 20254 ft 422 kts 360°
2026-05-07 11:00 40.02988 -8.94495 20259 ft 423 kts 359°
2026-05-07 11:01 40.05926 -8.94384 20253 ft 423 kts 359°
2026-05-07 11:01 40.08870 -8.94268 20249 ft 423 kts 359°
2026-05-07 11:01 40.11813 -8.94145 20246 ft 423 kts 359°
2026-05-07 11:01 40.14750 -8.94022 20244 ft 423 kts 359°
2026-05-07 11:02 40.17660 -8.93898 20245 ft 423 kts 359°
2026-05-07 11:02 40.20606 -8.93775 20239 ft 423 kts 359°
2026-05-07 11:02 40.23549 -8.93654 20238 ft 423 kts 359°
2026-05-07 11:02 40.26490 -8.93535 20238 ft 423 kts 359°
2026-05-07 11:03 40.29427 -8.93418 20236 ft 423 kts 359°
2026-05-07 11:03 40.32368 -8.93300 20235 ft 423 kts 359°
2026-05-07 11:03 40.35311 -8.93180 20235 ft 423 kts 359°
2026-05-07 11:03 40.38251 -8.93060 20236 ft 423 kts 359°
2026-05-07 11:04 40.41194 -8.92936 20236 ft 423 kts 359°
2026-05-07 11:04 40.44133 -8.92809 20236 ft 423 kts 359°
2026-05-07 11:04 40.47077 -8.92684 20237 ft 423 kts 359°
2026-05-07 11:04 40.50018 -8.92563 20238 ft 423 kts 359°
2026-05-07 11:05 40.52962 -8.92441 20236 ft 423 kts 359°
2026-05-07 11:05 40.55911 -8.92318 20240 ft 423 kts 359°
2026-05-07 11:05 40.58855 -8.92196 20237 ft 423 kts 359°
2026-05-07 11:05 40.61796 -8.92075 20238 ft 423 kts 359°
2026-05-07 11:06 40.64735 -8.91953 20237 ft 423 kts 359°
2026-05-07 11:06 40.67675 -8.91832 20236 ft 423 kts 359°
2026-05-07 11:06 40.70616 -8.91711 20235 ft 423 kts 359°
2026-05-07 11:06 40.73533 -8.91589 20055 ft 414 kts 359°
2026-05-07 11:07 40.76397 -8.91466 19805 ft 410 kts 359°
2026-05-07 11:07 40.79238 -8.91344 19555 ft 408 kts 359°
2026-05-07 11:07 40.82065 -8.91226 19282 ft 403 kts 359°
2026-05-07 11:07 40.84846 -8.91109 18784 ft 397 kts 359°
2026-05-07 11:08 40.87592 -8.90994 18252 ft 393 kts 359°
2026-05-07 11:08 40.90312 -8.90884 17718 ft 390 kts 359°
2026-05-07 11:08 40.93016 -8.90776 17174 ft 387 kts 358°
2026-05-07 11:08 40.95700 -8.90670 16622 ft 384 kts 359°
2026-05-07 11:09 40.98368 -8.90559 16068 ft 383 kts 359°
2026-05-07 11:09 41.00990 -8.90445 15507 ft 381 kts 359°
2026-05-07 11:09 41.03640 -8.90326 14937 ft 380 kts 359°
2026-05-07 11:09 41.06279 -8.90209 14347 ft 379 kts 359°
2026-05-07 11:10 41.08906 -8.90099 13769 ft 377 kts 359°
2026-05-07 11:10 41.11523 -8.89990 13180 ft 375 kts 359°
2026-05-07 11:10 41.14126 -8.89879 12578 ft 373 kts 359°
2026-05-07 11:10 41.16719 -8.89771 11971 ft 371 kts 359°
2026-05-07 11:11 41.19291 -8.89667 11355 ft 369 kts 359°
2026-05-07 11:11 41.21837 -8.89563 10898 ft 362 kts 359°
2026-05-07 11:11 41.24298 -8.89456 10769 ft 346 kts 359°
2026-05-07 11:11 41.26657 -8.89350 10643 ft 332 kts 359°
2026-05-07 11:12 41.28922 -8.89250 10517 ft 320 kts 359°
2026-05-07 11:12 41.31107 -8.89155 10384 ft 308 kts 359°
2026-05-07 11:12 41.33225 -8.89067 10138 ft 302 kts 359°
2026-05-07 11:12 41.35313 -8.88982 9982 ft 300 kts 359°
2026-05-07 11:13 41.37421 -8.88896 9384 ft 303 kts 359°
2026-05-07 11:13 41.39480 -8.88808 8771 ft 297 kts 360°
2026-05-07 11:13 41.41525 -8.88719 8169 ft 291 kts
2026-05-07 11:13 41.43555 -8.88634 7571 ft 285 kts
2026-05-07 11:14 41.45483 -8.88556 7018 ft 278 kts
2026-05-07 11:14 41.47365 -8.88190 6441 ft 272 kts 19°
2026-05-07 11:14 41.48985 -8.86970 5890 ft 265 kts 41°
2026-05-07 11:14 41.50115 -8.85154 5296 ft 247 kts 62°
2026-05-07 11:15 41.50679 -8.83070 4764 ft 232 kts 81°
2026-05-07 11:15 41.50959 -8.81077 4641 ft 206 kts 79°
2026-05-07 11:15 41.51225 -8.79296 4613 ft 184 kts 79°
2026-05-07 11:15 41.51266 -8.77635 4312 ft 178 kts 103°
2026-05-07 11:16 41.50777 -8.76110 4342 ft 182 kts 126°
2026-05-07 11:16 41.49851 -8.74958 4362 ft 187 kts 150°
2026-05-07 11:16 41.48620 -8.74390 4344 ft 190 kts 169°
2026-05-07 11:16 41.47321 -8.74052 4338 ft 190 kts 169°
2026-05-07 11:17 41.46019 -8.73710 3994 ft 190 kts 169°
2026-05-07 11:17 41.44729 -8.73368 3588 ft 188 kts 169°
2026-05-07 11:17 41.43453 -8.73032 3292 ft 186 kts 169°
2026-05-07 11:17 41.42232 -8.72710 3050 ft 171 kts 169°
2026-05-07 11:18 41.41105 -8.72412 2850 ft 158 kts 169°
2026-05-07 11:18 41.40056 -8.72136 2671 ft 150 kts 169°
2026-05-07 11:18 41.39043 -8.71868 2491 ft 147 kts 169°
2026-05-07 11:18 41.38054 -8.71608 2333 ft 142 kts 169°
2026-05-07 11:19 41.37098 -8.71356 2153 ft 139 kts 168°
2026-05-07 11:19 41.36160 -8.71109 1989 ft 137 kts 168°
2026-05-07 11:19 41.35229 -8.70865 1822 ft 136 kts 168°
2026-05-07 11:19 41.34617 -8.70703 1713 ft 135 kts 168°
2026-05-07 11:20 41.33697 -8.70461 1559 ft 134 kts 168°
2026-05-07 11:20 41.32783 -8.70221 1397 ft 134 kts 168°
2026-05-07 11:20 41.31875 -8.69982 1226 ft 133 kts 168°
2026-05-07 11:20 41.30965 -8.69749 1062 ft 133 kts 168°
2026-05-07 11:21 41.29767 -8.69423 826 ft 132 kts 168°
2026-05-07 11:21 41.29157 -8.69269 696 ft 132 kts 168°
2026-05-07 11:21 41.28257 -8.69029 532 ft 132 kts 168°
2026-05-07 11:21 41.27362 -8.68792 384 ft 131 kts 168°
2026-05-07 11:22 41.26465 -8.68557 240 ft 131 kts 168°
2026-05-07 11:22 41.25587 -8.68328 173 ft 118 kts 170°
2026-05-07 11:22 41.24945 -8.68165 195 ft 69 kts 167°
2026-05-07 11:22 41.24632 -8.68077 208 ft 32 kts 167°
2026-05-07 11:23 41.24417 -8.68023 209 ft 31 kts 169°
2026-05-07 11:23 41.24206 -8.67967 214 ft 31 kts 169°
2026-05-07 11:23 41.23996 -8.67912 219 ft 30 kts 169°
2026-05-07 11:23 41.23793 -8.67859 226 ft 29 kts 169°
2026-05-07 11:24 41.23622 -8.67805 232 ft 17 kts 154°
2026-05-07 11:24 41.23601 -8.67680 233 ft 13 kts 77°
2026-05-07 11:24 41.23620 -8.67555 233 ft 14 kts 79°
2026-05-07 11:24 41.23626 -8.67516 234 ft 0 kts 79°
2026-05-07 11:25 41.23627 -8.67508 235 ft 6 kts 79°
2026-05-07 11:25 41.23600 -8.67420 238 ft 10 kts 143°
2026-05-07 11:25 41.23590 -8.67360 240 ft 8 kts 88°
2026-05-07 11:25 41.23592 -8.67291 243 ft 5 kts 89°
2026-05-07 11:26 41.23592 -8.67270 244 ft 0 kts 89°
2026-05-07 11:26 41.23592 -8.67250 245 ft 4 kts 89°
2026-05-07 11:26 41.23593 -8.67225 245 ft 2 kts 89°
2026-05-07 11:26 41.23593 -8.67220 245 ft 0 kts 89°